STARLINK-1596, 46141

Orbit data source: Space-Track

STARLINK-1596, 46141 is a payload satellite owned by SpaceX/Seattle (US) in LEO that was launched on Tue, 18 Aug 2020 UTC via an FALCON 9 launch vehicle from the Air Force Eastern Test Range (AFETR). Payload-class satellites include a variety of spacecraft equipped with specific instruments for various scientific and technological missions. These include communications satellites like Starlink; space stations such as the ISS; scientific satellites like the Hubble; Earth observation satellites from companies like Planet Labs, Umbra, and HawkEye 360; GPS; miniature CubeSats for education and research; and military/defense satellites.

Loading next visibility...
Identifier
46141, 2020-057AA
Orbit
LEO
Country
Flag of USUS
Related business
Manufacturer
SpaceX/Seattle
Mission
Partially operational Commercial Communications
Bus & Motor
STARLINK, Unknown motor
Mass
260 kg wet, ~248 kg dry
Launch date (UTC)
2020-08-18 (6 years ago)
Launch vehicle
FALCON 9
Launch site
Air Force Eastern Test Range (AFETR)
Object type
Payload
Rocket body
Debris
Shape & HBR
Box + 1 Pan, 10.1 m
Radar Cross Section
13.562 m², Large (>1 m²)

Expand to show TLE details & history
Last TLE update: 10 hours ago

TLE from 10 hours ago
0 STARLINK-1596
1 46141U 20057AA  26062.79310147  .00058667  00000-0  12838-2 0  9994
2 46141  53.0431 258.8401 0005208 140.0953 220.0436 15.43587611306365
Epoch: 2026-03-03T19:02Z
TLE epoch observation values (Epoch: 2026-03-03T19:02:03.967Z)
Latitude
0.00003°
Longitude
171.75653°
Altitude
439.141 km
Speed
7.648 km/s
True Right ascension
17h 15m 21s
True Declination
0° 00' 00"
Sunlit
Object was in daylight at epoch
Visualization orbit readout
Latitude
Unknown
Longitude
Unknown
Altitude
Unknown
Speed
Unknown
Apparent Right ascension
Unknown
Apparent Declination
Unknown
Sunlit
N/A
Visualization observer readout
Local Sidereal Time
08:37:37
Azimuth
Unknown
Elevation
Unknown
Doppler factor
Unknown
Orbital elements
Apogee altitude
439.357 km
Perigee altitude
432.259 km
Semi-major axis
6,813.945 km
Eccentricity
0.00052
Inclination
53.0431°
RAAN
258.8401°
Arg. of periapsis
140.0953°
True anomaly
220.00522°
Mean anomaly
220.0436°
Eccentric anomaly
220.02441°
Mean motion
3.85874 °/min
Orbital period
93.29 mins
BSTAR
0.0012838
Loading maneuver chart data...
Computing Atmospheric mass density...

Documentation

Showing up to 5 results
|